Fort Sill, OK

2:45 PM CDT on March 29, 2017 (GMT -0500)
Post Army Air Field

Weather History for KFSI - December, 2013

Change the Weather History Date:

Monday, December 16, 2013

  Actual Average Record
Temperature  
Mean Temperature 46 °F -  
Max Temperature 63 °F 51 °F 78 °F (1948)
Min Temperature 28 °F 28 °F 12 °F (1989)
Degree Days  
Heating Degree Days 20    
Moisture  
Dew Point 30 °F    
Average Humidity 59    
Maximum Humidity 88    
Minimum Humidity 30    
Precipitation  
Precipitation 0.00 in - - ()
Sea Level Pressure  
Sea Level Pressure 30.14 in    
Wind  
Wind Speed 4 mph (SW)    
Max Wind Speed 8 mph    
Max Gust Speed -    
Visibility 10 miles    
Events      
Averages and records for this station are not official NWS values.
T = Trace of Precipitation, MM = Missing Value Source: NWS Daily Summary

Daily Weather History Graph

Daily Weather History Graph

Search for Another Location

Airport or City:

Trip Planner

Search our weather history database for the weather conditions in past years. The results will help you decide how hot, cold, wet, or windy it might be!

Date:

Astronomy

Dec. 16, 2013 Rise Set
Actual Time 7:34 AM CST 5:24 PM CST
Civil Twilight 7:06 AM CST 5:52 PM CST
Nautical Twilight 6:34 AM CST 6:24 PM CST
Astronomical Twilight 6:03 AM CST 6:55 PM CST
Moon 5:14 PM CST (12/16) 6:45 AM CST (12/16)
Length of Visible Light 10h 46m
Length of Day
9h 50m
Full, 100% of the Moon is Illuminated
Dec 16
Full
Dec 17
Full
Dec 25
Last Quarter
Jan 1
New
Jan 7
First Quarter

Hourly Weather History & Observations

Time (CST) Temp. Windchill Dew Point Humidity Pressure Visibility Wind Dir Wind Speed Gust Speed Precip Events Conditions
12:58 AM 40.5 °F 37.3 °F 28.6 °F 63% 30.14 in 10.0 mi SSW 4.6 mph - N/A   Clear
1:58 AM 36.5 °F 31.0 °F 27.9 °F 71% 30.14 in 10.0 mi SW 6.9 mph - N/A   Clear
2:58 AM 38.3 °F - 28.0 °F 67% 30.13 in 10.0 mi North 1.2 mph - N/A   Clear
3:58 AM 36.7 °F 34.1 °F 27.9 °F 70% 30.13 in 10.0 mi SW 3.5 mph - N/A   Clear
4:58 AM 33.3 °F 30.2 °F 27.1 °F 78% 30.13 in 10.0 mi SW 3.5 mph - N/A   Clear
5:58 AM 32.4 °F - 26.4 °F 79% 30.12 in 10.0 mi West 1.2 mph - N/A   Clear
6:58 AM 28.2 °F 23.1 °F 25.0 °F 88% 30.15 in 10.0 mi SSE 4.6 mph - N/A   Clear
7:58 AM 28.2 °F - 25.0 °F 88% 30.16 in 10.0 mi Calm Calm - N/A   Clear
8:58 AM 33.3 °F - 28.4 °F 82% 30.17 in 10.0 mi Calm Calm - N/A   Clear
9:58 AM 41.4 °F 39.4 °F 31.8 °F 69% 30.17 in 10.0 mi South 3.5 mph - N/A   Clear
10:58 AM 48.2 °F - 31.6 °F 53% 30.18 in 10.0 mi SSW 2.3 mph - N/A   Clear
11:58 AM 54.5 °F - 32.7 °F 44% 30.15 in 10.0 mi South 6.9 mph - N/A   Clear
12:58 PM 59.0 °F - 31.3 °F 35% 30.12 in 10.0 mi South 4.6 mph - N/A   Clear
1:58 PM 61.5 °F - 33.8 °F 35% 30.11 in 10.0 mi South 5.8 mph - N/A   Clear
2:58 PM 63.0 °F - 31.6 °F 31% 30.11 in 10.0 mi SSW 8.1 mph - N/A   Clear
3:58 PM 63.3 °F - 31.5 °F 30% 30.11 in 10.0 mi South 8.1 mph - N/A   Clear
4:58 PM 61.2 °F - 31.1 °F 32% 30.13 in 10.0 mi South 5.8 mph - N/A   Clear
5:58 PM 56.5 °F - 31.8 °F 39% 30.13 in 10.0 mi SW 3.5 mph - N/A   Clear
6:58 PM 50.9 °F - 32.4 °F 49% 30.14 in 10.0 mi SSW 4.6 mph - N/A   Clear
7:58 PM 49.5 °F - 32.4 °F 52% 30.16 in 10.0 mi Calm Calm - N/A   Clear
8:58 PM 46.8 °F - 32.0 °F 57% 30.16 in 10.0 mi WSW 3.5 mph - N/A   Clear
9:58 PM 44.8 °F 43.3 °F 31.5 °F 60% 30.16 in 10.0 mi NW 3.5 mph - N/A   Clear
10:58 PM 40.3 °F - 30.4 °F 68% 30.18 in 10.0 mi Calm Calm - N/A   Clear
11:58 PM 39.9 °F 36.7 °F 30.4 °F 69% 30.17 in 10.0 mi West 4.6 mph - N/A   Clear